Temperature
7 8 7 6 6 6 5 6 7 9 10 12 12 12 11 10 9 9 9 7 6 6 6 6 7 9 11 11 10 10 10 10 10 9 8 8 7 7 6 5 4 3 2 2
6 8 8 7 7 7 6 6 7 8 9 11 11 10 10 9 8 8 8 7 6 5 5 6 8 10 10 10 9 10 10 9 9 8 8 7 6 5 5 4 3 2 2 1
7 10 8 8 8 7 7 7 8 8 9 10 10 9 9 8 8 8 8 6 5 4 5 6 8 10 9 9 9 9 9 8 8 8 7 6 5 4 3 2 2 1 0 -0
7 8 9 10 9 8 8 9 9 9 10 10 9 8 7 7 6 7 7 6 5 5 6 8 9 9 9 9 9 8 8 8 7 6 6 5 4 3 2 1 1 -0 -0 -1
7 8 10 11 10 8 8 9 10 9 10 10 8 8 8 6 5 6 6 5 5 6 8 9 9 9 9 8 8 7 7 6 6 5 4 3 2 2 1 0 -0 -1 -1 -1
7 8 10 12 10 9 9 11 10 10 10 10 9 8 8 4 5 5 5 6 7 8 8 8 8 8 8 7 7 6 6 5 4 3 2 2 1 0 -0 -1 -1 -1 -2 -2
8 8 11 12 10 10 11 11 9 9 9 10 9 8 5 4 4 5 5 6 7 8 8 8 8 7 7 7 6 5 5 4 3 2 1 1 -0 -1 -1 -1 -2 -2 -2 -3
8 9 11 11 10 11 12 9 8 7 8 7 5 4 4 4 4 4 5 5 7 8 7 7 7 7 7 6 5 4 3 2 1 1 0 -1 -1 -1 -2 -2 -2 -3 -3 -3
11 12 13 10 10 10 8 7 7 6 7 7 4 3 3 4 4 3 4 5 6 7 7 6 6 6 6 5 3 2 2 1 0 -0 -1 -1 -2 -2 -2 -3 -3 -3 -4 -4
10 11 11 10 9 8 6 5 5 6 6 7 5 3 3 3 3 3 3 4 5 6 6 5 5 4 5 3 2 1 0 -0 -1 -1 -2 -2 -2 -3 -3 -3 -4 -5 -5 -6
11 12 11 11 8 7 6 5 5 6 6 6 5 3 3 3 3 3 3 4 5 6 5 4 3 3 2 1 0 -0 -1 -1 -1 -2 -2 -3 -3 -3 -4 -4 -5 -5 -6 -7
12 12 12 10 6 6 6 4 5 5 5 5 5 4 4 4 4 4 5 5 5 4 3 2 2 1 0 -1 -1 -1 -1 -1 -2 -2 -3 -3 -4 -4 -4 -5 -5 -6 -7 -8
10 9 9 7 6 7 6 5 4 5 5 4 4 5 6 5 5 4 4 4 4 3 2 1 0 -0 -1 -1 -1 -2 -2 -2 -2 -3 -3 -3 -4 -4 -4 -5 -5 -7 -8 -8
9 9 8 6 6 7 6 6 5 5 5 6 6 6 6 5 4 4 3 3 2 2 1 0 -0 -1 -1 -2 -2 -2 -2 -3 -3 -3 -4 -4 -4 -5 -5 -6 -7 -7 -8 -8
9 8 8 8 7 6 6 6 6 6 6 6 6 5 5 4 3 2 2 1 1 0 -0 -1 -1 -2 -2 -2 -2 -2 -3 -3 -4 -4 -4 -5 -5 -6 -6 -7 -8 -8 -8 -8
7 7 8 7 7 6 6 6 6 6 6 5 5 4 4 3 2 1 1 1 0 -0 -1 -2 -2 -2 -2 -2 -3 -3 -4 -4 -4 -4 -5 -5 -6 -7 -8 -8 -9 -9 -9 -10
6 6 6 5 6 6 6 6 7 6 6 5 5 4 3 3 2 1 -0 -1 -1 -1 -2 -2 -2 -2 -3 -3 -4 -4 -4 -4 -5 -5 -5 -6 -7 -8 -8 -9 -9 -10 -10 -10
8 8 9 9 8 6 5 5 6 6 6 5 5 4 3 2 1 0 -1 -1 -2 -2 -2 -3 -3 -3 -3 -4 -4 -4 -4 -5 -5 -6 -6 -7 -8 -9 -9 -9 -10 -10 -10 -10
8 8 8 7 7 7 7 7 6 6 6 5 5 4 3 2 1 0 -1 -2 -2 -2 -3 -3 -4 -4 -4 -4 -4 -4 -5 -5 -6 -6 -7 -8 -8 -9 -9 -10 -10 -10 -10 -11
8 8 7 7 6 7 7 7 6 6 5 5 4 3 2 1 0 -0 -2 -2 -2 -2 -3 -3 -4 -4 -4 -4 -5 -5 -5 -6 -7 -7 -8 -8 -9 -9 -10 -10 -10 -11 -11 -11
8 8 7 6 5 6 7 7 6 6 5 4 4 3 2 0 -0 -1 -2 -2 -3 -3 -3 -4 -4 -4 -4 -5 -5 -6 -6 -7 -7 -8 -9 -9 -9 -10 -10 -10 -11 -11 -11 -11
7 7 6 5 5 5 6 6 6 6 5 3 3 2 1 -0 -1 -2 -2 -2 -2 -3 -3 -4 -4 -4 -5 -5 -6 -6 -7 -8 -8 -9 -9 -10 -10 -10 -10 -11 -11 -11 -11 -11
6 6 5 5 5 5 5 5 5 5 4 3 2 2 1 0 -1 -1 -2 -2 -3 -3 -4 -4 -4 -5 -5 -6 -6 -7 -8 -8 -9 -9 -10 -10 -10 -11 -11 -11 -11 -11 -11 -11
4 4 4 4 4 5 4 4 4 3 3 2 1 1 1 -0 -2 -2 -2 -3 -3 -4 -4 -4 -5 -5 -6 -6 -7 -8 -8 -9 -9 -10 -10 -10 -11 -11 -11 -11 -11 -11 -11 -11
4 4 3 3 3 4 4 3 2 2 1 1 -0 -1 -1 -1 -1 -2 -2 -3 -4 -4 -4 -5 -5 -6 -7 -7 -8 -8 -9 -9 -10 -10 -11 -11 -11 -11 -11 -11 -11 -11 -11 -11
3 3 2 2 3 4 4 3 2 2 1 0 -1 -2 -2 -3 -3 -3 -3 -4 -4 -4 -5 -5 -6 -6 -7 -8 -8 -9 -9 -10 -10 -11 -11 -11 -11 -11 -12 -12 -12 -12 -11 -11
1 1 1 1 2 3 3 3 2 1 1 0 -1 -2 -3 -3 -3 -3 -4 -4 -5 -5 -6 -6 -7 -7 -8 -8 -9 -9 -10 -10 -11 -11 -11 -12 -12 -12 -12 -12 -12 -11 -11 -11
Wind_Speed
19 24 22 25 25 19 22 23 20 25 26 25 20 18 16 14 14 15 14 7 6 9 12 13 14 15 15 16 15 15 17 17 17 16 16 15 14 13 11 9 8 6 5 3
17 22 22 24 24 22 21 22 27 28 28 21 16 13 13 14 13 14 12 5 8 10 13 14 15 15 16 16 15 15 17 17 16 16 15 14 13 12 11 8 7 5 3 1
10 14 14 11 11 12 12 16 17 22 24 18 15 15 14 13 14 13 8 7 11 12 13 14 15 16 17 16 16 16 17 17 16 16 15 13 12 11 9 7 5 3 1 1
7 11 6 5 6 9 12 16 20 20 18 13 12 12 11 11 11 8 3 10 12 13 14 15 16 17 17 17 17 17 17 16 15 15 14 12 11 9 7 5 3 1 1 2
5 7 10 6 4 4 5 7 9 18 20 16 9 11 9 6 6 2 6 11 12 14 15 16 16 17 18 17 16 16 16 15 14 14 13 11 10 8 5 3 2 0 2 3
5 6 4 5 4 3 5 4 7 8 10 10 7 5 4 7 7 8 11 13 14 15 16 16 16 17 18 17 16 15 15 14 13 12 11 10 9 6 4 2 1 1 3 4
8 6 7 5 3 3 4 9 12 10 2 8 7 2 3 7 9 11 12 14 15 16 15 15 16 17 17 16 15 15 14 14 12 11 10 9 7 5 3 1 1 3 4 5
5 6 5 1 2 2 6 6 7 6 2 8 9 8 8 9 11 12 13 14 15 16 15 14 15 17 17 16 15 14 14 13 12 11 9 7 6 4 3 2 3 4 5 6
6 6 5 3 6 5 5 6 4 1 3 11 11 9 9 10 11 12 13 14 14 17 17 14 13 15 18 15 14 14 13 12 11 10 8 6 5 4 2 3 4 5 5 6
6 9 8 8 6 3 3 3 1 3 8 9 12 13 13 12 12 13 13 14 15 17 17 15 14 14 16 14 13 14 13 11 9 8 7 5 4 3 3 3 4 5 6 7
7 8 8 4 2 3 5 5 7 9 10 13 16 15 14 14 14 13 13 13 13 15 16 16 15 14 13 12 13 13 11 9 8 6 5 4 4 3 3 3 5 7 7 7
4 2 3 3 3 6 7 7 9 13 15 13 14 16 16 15 14 14 14 14 15 16 16 15 14 13 11 10 11 12 9 8 6 5 4 3 2 1 1 2 6 7 8 9
3 1 1 3 5 7 9 9 10 12 15 16 14 15 16 16 14 14 15 15 15 15 15 14 14 12 9 9 9 9 9 7 5 4 3 2 2 3 4 3 5 6 8 11
4 4 3 4 5 9 12 13 13 14 14 15 15 15 16 16 15 15 14 14 15 15 14 14 13 11 9 9 9 9 8 7 5 4 2 1 2 3 4 6 8 7 8 10
6 3 4 8 11 12 13 14 14 14 15 15 14 15 15 16 15 14 13 14 14 14 13 13 12 10 8 8 9 8 6 4 4 3 1 1 2 4 5 6 7 8 8 9
6 6 9 11 13 13 14 14 14 14 14 15 14 14 14 15 15 14 13 13 13 13 11 11 11 9 8 8 8 6 5 5 3 1 1 2 3 4 5 6 7 7 8 8
8 8 9 10 13 15 13 12 13 15 15 15 15 15 15 15 14 13 11 10 11 11 10 10 10 8 7 6 6 4 4 3 2 1 1 3 4 5 5 6 7 8 8 9
6 7 10 14 16 16 14 13 14 14 14 14 16 15 15 14 14 12 11 12 12 10 8 8 8 8 7 6 4 3 3 2 1 1 2 3 4 5 6 6 8 9 8 10
5 7 10 13 15 16 16 15 15 14 14 15 16 15 13 13 13 12 12 12 12 10 7 8 10 7 6 5 4 3 2 1 0 2 3 5 5 5 6 6 7 8 9 9
6 8 12 14 14 16 17 16 16 15 14 15 16 15 14 13 12 12 11 9 6 7 9 9 8 6 5 5 4 2 1 0 2 3 4 5 5 6 6 6 7 8 9 9
10 12 14 15 14 14 15 17 17 16 14 14 15 15 14 13 12 11 10 8 6 8 8 9 6 5 4 3 3 1 0 1 3 4 4 5 6 6 6 7 7 8 8 9
11 13 15 15 16 14 13 13 15 17 16 14 15 15 15 13 11 9 7 7 8 9 7 5 4 5 5 4 1 0 1 2 3 4 5 5 6 6 7 7 8 8 8 8
9 12 14 15 16 16 15 13 15 15 15 15 15 15 13 11 9 9 7 6 7 9 6 4 6 7 5 2 1 2 3 4 4 5 5 5 6 6 7 8 8 8 8 8
10 12 13 15 16 17 16 14 13 12 14 13 12 13 12 10 7 5 7 11 11 10 6 7 7 6 3 2 2 3 4 5 5 5 5 6 6 7 7 7 7 8 8 10
12 13 14 16 15 13 16 16 16 15 14 11 12 10 7 6 7 8 9 9 11 9 6 6 5 4 2 2 3 4 5 5 6 7 6 6 7 7 7 7 7 8 8 9
11 11 11 10 10 12 13 13 12 11 11 11 9 7 7 8 10 9 8 8 8 7 5 3 2 2 2 3 4 5 5 6 6 6 6 7 7 7 7 8 9 8 8 9
11 11 11 11 11 11 11 11 12 12 11 12 10 8 9 9 8 8 8 6 5 4 3 2 2 2 3 4 5 5 5 6 6 6 6 7 7 7 7 9 8 8 8 9
Wind_Direction
258 270 270 266 267 255 236 236 247 260 266 273 281 284 289 298 306 308 316 288 202 169 152 143 136 130 125 125 129 132 127 123 123 123 122 123 124 124 124 126 130 135 136 138
275 273 270 272 271 262 248 242 246 259 269 279 289 284 288 297 302 302 304 243 178 158 148 140 134 128 123 124 127 124 120 120 121 121 121 122 123 123 123 128 134 137 138 146
287 303 297 274 272 255 237 232 238 250 259 271 279 285 291 296 300 300 288 188 161 152 143 135 131 127 124 124 122 119 118 120 121 121 121 122 124 124 128 135 140 145 141 319
293 310 298 313 281 266 258 253 242 247 259 268 280 290 293 298 301 298 190 154 147 137 127 123 120 118 118 118 118 118 118 119 120 122 122 125 125 125 129 137 146 147 331 325
281 296 287 303 315 283 273 276 262 253 252 254 265 288 294 338 326 288 140 135 130 125 122 118 118 119 117 115 116 117 118 119 122 125 126 127 124 124 129 139 136 5 322 319
270 290 293 328 329 279 261 321 3 317 259 235 222 271 337 23 31 89 111 118 121 120 118 117 119 120 116 116 116 116 118 119 121 123 123 121 119 120 120 118 56 326 316 315
249 264 276 293 291 268 334 344 341 342 320 180 190 212 59 63 69 86 102 114 119 117 113 116 120 117 113 112 112 115 116 114 112 111 109 110 113 115 119 98 346 325 318 319
219 242 274 250 258 282 316 319 322 338 79 126 115 102 92 87 89 97 105 111 113 110 107 111 116 115 111 111 115 116 113 110 107 105 104 111 118 117 99 33 341 334 330 331
226 253 305 277 256 286 311 300 306 306 124 128 121 117 108 99 99 101 104 107 109 110 107 107 110 114 114 118 120 118 113 110 109 109 110 113 108 96 64 16 351 339 333 329
265 269 274 278 281 316 345 319 312 145 133 127 123 124 117 110 106 104 105 109 113 111 107 104 106 109 116 122 123 119 117 118 121 119 112 102 89 66 34 8 349 336 331 328
257 279 294 304 2 57 71 82 103 109 113 119 121 122 119 114 111 111 110 109 109 109 108 110 112 112 116 122 124 122 122 121 117 109 105 96 86 59 17 9 346 333 330 324
260 311 296 350 73 103 102 102 114 117 114 115 122 124 119 114 113 113 110 109 108 108 111 114 114 113 117 125 129 127 123 119 112 110 102 90 68 42 69 336 339 335 329 323
260 121 79 103 109 110 112 114 116 117 120 121 120 120 116 113 111 110 110 112 114 115 117 119 118 116 120 124 123 120 120 118 113 106 94 74 25 345 330 319 322 325 325 325
195 161 153 154 134 125 122 116 112 110 111 113 115 113 111 110 110 110 113 116 118 119 120 121 119 116 120 119 115 112 110 105 104 101 93 63 350 334 330 327 324 322 322 322
185 175 134 127 125 128 131 129 122 116 113 109 109 112 116 117 116 116 119 122 120 119 120 122 119 117 120 117 113 111 108 108 108 107 100 0 335 327 320 312 309 313 318 323
143 127 133 141 143 146 148 144 134 129 124 121 118 117 117 117 118 119 124 129 127 125 126 124 120 120 119 115 113 110 106 111 112 100 46 346 331 319 311 309 310 312 317 323
152 158 157 159 161 159 157 151 141 137 134 130 127 124 122 120 118 118 117 117 117 118 122 122 122 121 120 122 122 119 117 113 100 65 1 334 318 310 308 307 309 313 313 317
202 195 182 172 164 155 147 140 137 136 134 132 130 128 129 130 129 126 122 119 113 109 111 119 123 124 126 128 122 112 103 92 55 354 332 321 311 308 305 305 309 311 313 317
160 164 164 161 157 149 141 139 136 132 133 136 133 131 129 128 128 128 129 128 129 128 131 134 134 134 133 129 118 104 96 90 348 327 321 313 307 303 303 307 310 313 316 317
127 140 142 140 140 142 139 137 135 135 137 135 129 126 126 127 129 130 129 124 128 136 140 139 137 135 133 128 113 100 98 351 319 317 313 308 307 307 308 310 313 316 317 316
132 134 135 135 134 135 138 139 139 138 138 138 135 134 131 129 130 130 130 123 124 134 138 138 136 137 135 125 111 102 23 322 315 312 308 306 305 306 308 311 315 316 315 313
140 139 138 137 136 134 136 137 136 135 134 131 128 129 130 131 129 119 112 128 141 144 138 138 138 137 129 118 95 9 326 316 309 305 301 301 303 305 308 312 312 311 309 309
144 143 143 142 139 133 129 130 132 133 133 134 136 138 137 135 135 131 126 134 141 144 138 136 135 125 110 87 26 338 317 305 301 298 298 298 299 301 304 305 304 304 304 305
142 143 140 137 134 131 129 126 121 121 122 122 127 132 133 128 115 109 126 141 142 134 123 125 122 109 89 40 345 316 303 298 295 293 292 295 297 297 296 296 298 298 298 299
141 139 141 144 142 136 130 126 121 120 116 116 118 118 116 118 125 128 128 133 132 119 103 98 92 79 40 342 316 302 296 293 295 299 298 298 295 294 292 292 292 293 294 293
145 146 147 143 134 136 138 135 132 132 130 126 120 112 109 110 116 118 114 114 114 109 100 82 53 19 337 315 302 297 295 297 299 298 294 293 291 291 289 290 290 288 288 288
139 138 131 123 129 137 136 134 135 137 137 135 127 123 122 120 118 116 113 110 107 102 95 68 10 333 315 303 297 294 293 293 294 295 293 290 288 286 286 285 285 285 286 286
Height
1436 1428 1427 1425 1422 1422 1422 1415 1408 1392 1387 1381 1384 1386 1387 1386 1384 1381 1380 1379 1379 1380 1383 1385 1389 1395 1402 1409 1416 1423 1430 1436 1442 1448 1454 1459 1463 1467 1470 1473 1475 1475 1474 1473
1431 1422 1416 1413 1408 1407 1408 1407 1402 1395 1387 1383 1385 1385 1385 1383 1381 1379 1377 1377 1379 1381 1383 1386 1390 1396 1403 1410 1418 1425 1431 1437 1443 1448 1454 1459 1462 1465 1469 1471 1472 1472 1471 1470
1421 1408 1409 1402 1397 1396 1396 1394 1394 1390 1383 1382 1384 1383 1382 1380 1378 1376 1375 1376 1379 1382 1384 1388 1393 1399 1405 1413 1420 1427 1433 1439 1444 1449 1454 1459 1462 1465 1467 1469 1470 1470 1468 1466
1423 1414 1401 1394 1392 1392 1389 1385 1384 1381 1379 1381 1382 1380 1379 1377 1375 1374 1374 1377 1380 1383 1386 1391 1397 1404 1410 1417 1424 1430 1436 1441 1445 1450 1455 1458 1461 1464 1466 1467 1468 1467 1465 1462
1423 1411 1397 1387 1389 1389 1387 1381 1377 1376 1375 1378 1381 1379 1375 1375 1373 1373 1375 1378 1382 1385 1390 1396 1402 1408 1414 1421 1427 1433 1438 1443 1447 1452 1455 1458 1461 1463 1465 1465 1464 1463 1461 1458
1420 1412 1397 1386 1387 1386 1388 1376 1375 1373 1371 1374 1379 1378 1375 1376 1374 1375 1378 1380 1385 1390 1395 1401 1407 1413 1419 1425 1430 1435 1440 1445 1449 1453 1456 1458 1460 1462 1463 1463 1461 1459 1457 1454
1417 1410 1392 1385 1386 1385 1379 1377 1375 1373 1371 1372 1376 1378 1379 1377 1377 1379 1381 1385 1390 1395 1401 1406 1412 1418 1422 1428 1433 1438 1443 1447 1450 1454 1456 1458 1459 1460 1460 1460 1458 1456 1453 1450
1409 1405 1394 1384 1384 1382 1379 1377 1376 1374 1373 1374 1377 1379 1379 1380 1381 1383 1386 1390 1395 1399 1405 1411 1417 1421 1426 1431 1436 1441 1445 1449 1451 1454 1455 1457 1458 1458 1458 1456 1454 1452 1450 1447
1397 1392 1383 1383 1381 1380 1378 1377 1375 1374 1374 1375 1378 1381 1382 1383 1385 1388 1390 1393 1398 1403 1409 1415 1422 1427 1431 1435 1440 1444 1447 1450 1452 1454 1455 1456 1456 1456 1455 1453 1451 1449 1446 1442
1393 1385 1382 1380 1379 1378 1376 1374 1373 1373 1374 1376 1378 1382 1384 1386 1389 1392 1395 1399 1403 1408 1413 1420 1426 1432 1435 1439 1443 1446 1448 1451 1452 1453 1454 1454 1454 1453 1452 1450 1448 1445 1442 1438
1389 1383 1381 1378 1378 1377 1375 1374 1374 1374 1376 1379 1381 1384 1387 1390 1393 1396 1400 1405 1410 1414 1419 1425 1430 1435 1439 1442 1445 1447 1449 1450 1451 1452 1452 1452 1452 1451 1449 1447 1445 1442 1439 1436
1382 1382 1381 1380 1379 1378 1378 1378 1378 1377 1379 1382 1385 1388 1391 1394 1398 1402 1406 1411 1416 1420 1424 1429 1434 1437 1441 1444 1446 1448 1449 1450 1450 1451 1451 1451 1450 1449 1447 1445 1442 1439 1435 1432
1382 1381 1381 1380 1379 1379 1380 1381 1382 1383 1383 1385 1390 1394 1396 1399 1403 1408 1413 1417 1421 1425 1429 1433 1436 1439 1442 1445 1446 1448 1448 1449 1449 1450 1450 1449 1448 1447 1445 1443 1440 1436 1432 1428
1378 1379 1379 1379 1379 1381 1382 1384 1386 1387 1389 1391 1395 1399 1402 1405 1409 1414 1418 1422 1426 1429 1432 1435 1438 1441 1443 1445 1446 1447 1448 1448 1448 1448 1448 1447 1446 1444 1441 1438 1435 1431 1428 1424
1375 1377 1378 1378 1379 1381 1384 1386 1389 1391 1394 1397 1400 1404 1407 1410 1414 1418 1422 1426 1429 1431 1434 1437 1439 1441 1443 1445 1446 1447 1447 1448 1448 1447 1446 1445 1443 1441 1438 1435 1431 1427 1424 1420
1372 1374 1376 1377 1379 1382 1385 1388 1390 1393 1397 1400 1404 1408 1411 1415 1418 1422 1425 1429 1431 1433 1436 1438 1440 1442 1443 1445 1446 1447 1447 1447 1447 1446 1445 1443 1440 1438 1435 1431 1428 1424 1420 1417
1370 1371 1373 1375 1377 1380 1385 1389 1392 1395 1399 1403 1406 1410 1414 1417 1420 1424 1427 1431 1433 1435 1438 1440 1441 1443 1444 1445 1446 1447 1447 1447 1446 1445 1442 1440 1437 1434 1431 1428 1425 1421 1418 1414
1367 1369 1370 1371 1374 1378 1384 1389 1393 1397 1401 1405 1409 1413 1416 1419 1422 1425 1428 1431 1434 1436 1439 1441 1443 1444 1445 1446 1446 1447 1446 1446 1444 1442 1440 1437 1434 1431 1429 1425 1422 1418 1414 1411
1364 1367 1368 1371 1374 1378 1382 1388 1394 1399 1403 1407 1410 1414 1418 1421 1424 1427 1430 1433 1435 1437 1440 1441 1443 1444 1445 1446 1446 1446 1445 1443 1442 1439 1437 1434 1431 1428 1425 1422 1419 1415 1411 1407
1363 1365 1367 1370 1374 1378 1383 1389 1395 1400 1404 1408 1411 1415 1418 1422 1425 1428 1431 1434 1436 1438 1440 1442 1443 1445 1445 1445 1445 1444 1443 1441 1439 1436 1434 1431 1428 1425 1422 1419 1415 1412 1408 1404
1363 1365 1367 1370 1374 1380 1385 1391 1396 1400 1405 1409 1413 1416 1419 1422 1426 1429 1432 1434 1437 1439 1441 1442 1443 1444 1445 1444 1443 1442 1440 1438 1436 1433 1430 1427 1425 1422 1418 1415 1412 1408 1405 1402
1363 1365 1367 1371 1375 1381 1387 1392 1397 1401 1405 1410 1414 1417 1420 1423 1426 1430 1433 1436 1437 1439 1441 1442 1443 1444 1444 1443 1441 1440 1438 1435 1432 1430 1427 1424 1421 1418 1415 1412 1408 1405 1402 1399
1363 1365 1368 1371 1376 1381 1387 1393 1398 1402 1406 1410 1414 1418 1421 1424 1427 1430 1433 1436 1438 1439 1441 1442 1443 1443 1442 1441 1439 1437 1434 1432 1429 1426 1423 1420 1417 1414 1411 1408 1405 1402 1399 1396
1363 1365 1368 1372 1377 1382 1387 1393 1399 1404 1409 1413 1417 1420 1423 1425 1428 1431 1434 1436 1438 1440 1441 1441 1441 1441 1439 1438 1436 1433 1431 1428 1425 1422 1419 1416 1413 1410 1407 1404 1401 1399 1396 1393
1363 1366 1369 1373 1378 1382 1387 1393 1399 1405 1409 1413 1417 1421 1424 1428 1430 1431 1434 1436 1438 1439 1440 1440 1439 1438 1437 1435 1432 1430 1427 1424 1421 1417 1414 1411 1408 1405 1402 1400 1397 1395 1393 1390
1363 1366 1370 1375 1378 1383 1388 1393 1398 1404 1408 1412 1416 1420 1424 1427 1430 1432 1434 1436 1438 1438 1438 1438 1437 1436 1434 1431 1429 1426 1423 1420 1416 1413 1410 1407 1404 1401 1398 1396 1394 1392 1389 1387
1364 1367 1370 1375 1380 1386 1390 1395 1399 1404 1408 1411 1415 1419 1423 1427 1430 1432 1434 1436 1437 1437 1437 1436 1435 1433 1431 1428 1425 1422 1419 1415 1412 1409 1405 1402 1399 1397 1394 1392 1390 1388 1386 1383